Location: Gleizolles
(44.4833°N, 6.7667°E)
Time: 17:22:56
(UTC+00:00)

ISS - Pass Details

Date: 07 December 2021
Orbit: 413 x 422 km, 51.6° (Epoch: 27 January)

Event Time Altitude Azimuth Distance (km) Brightness Sun altitude
Rises 17:38:16 0° 294° (WNW) 2,384 0.9 -18.0°
Reaches altitude 10° 17:40:34 10° 282° (WNW) 1,513 0.0 -18.4°
Maximum altitude 17:43:30 27° 222° (SW) 841 -1.7 -18.9°
Drops below altitude 10° 17:46:24 10° 162° (SSE) 1,498 -1.0 -19.4°
Enters shadow 17:46:32 - 161° (SSE) 1,546 -1.0 -19.5°
